Tracking 17938 objects as of 24-February-2017
HD Live streaming from Space Station
objects crossing your sky now

METEOR 1-26

Track METEOR 1-26 now!
10-day predictions
METEOR 1-26 is classified as:


NORAD ID: 9481
Int'l Code: 1976-102A
Perigee: 850.3 km
Apogee: 884.4 km
Inclination: 81.2 °
Period: 102.1 minutes
Semi major axis: 7238 km
RCS: 4.3206 m2 (large)
Launch date: October 15, 1976
Source: Commonwealth of Independent States (former USSR) (CIS)
Launch site: PLESETSK MISSILE AND SPACE COMPLEX (PKMTR)
Your satellite tracking list
Your tracking list is empty





NASA's NSSDC Master Catalog

Two Line Element Set (TLE):
1 09481U 76102A   17055.19876022  .00000003  00000-0 -57706-5 0  9995
2 09481  81.2189 122.9671 0023548 156.2980 203.9281 14.09750849 74793
Source of the keplerian elements: AFSPC